This demonstration page uses our WeatherBlox Daily Observations layout. Learn more.

Left ArrowRight Arrow

44.8408, -93.29828

Hourly Observations for July 4, 2017

Temp ( °F °C ) Dew Point ( °F °C ) Humidity (%) Winds ( mph kmh ) Pressure ( in mb ) Visibility ( mi km ) Precip ( " mm )
12:53 am 00:53 Mostly Clear 71 21.7 57 13.9 61 61 E 6 9 30.03 1017 10 16 0.00 0.00
1:53 am 01:53 Partly Cloudy 70 21.1 57 13.9 64 64 E 6 9 30.03 1017 10 16 0.00 0.00
2:53 am 02:53 Partly Cloudy 69 20.6 57 13.9 66 66 ESE 6 9 30.02 1017 10 16 0.00 0.00
3:53 am 03:53 Mostly Clear 68 20 57 13.9 68 68 ESE 8 13 30.02 1017 10 16 0.00 0.00
4:53 am 04:53 Mostly Clear 68 20 59 15 73 73 SE 6 9 30.03 1017 10 16 0.00 0.00
5:53 am 05:53 Partly Cloudy 67 19.4 60 15.6 79 79 SE 8 13 30.04 1017 10 16 0.00 0.00
6:53 am 06:53 Mostly Cloudy 68 20 61 16.1 78 78 SSE 8 13 30.05 1018 10 16 0.00 0.00
7:53 am 07:53 Mostly Cloudy 70 21.1 62 16.7 76 76 SE 7 11 30.06 1018 10 16 0.00 0.00
8:53 am 08:53 Mostly Cloudy 72 22.2 62 16.7 71 71 SE 10 17 30.06 1018 10 16 0.00 0.00
9:53 am 09:53 Mostly Cloudy 76 24.4 64 17.8 67 67 SE 10 17 30.06 1018 10 16 0.00 0.00
10:53 am 10:53 Partly Cloudy 78 25.6 64 17.8 62 62 SSE 10 17 30.05 1018 10 16 0.00 0.00
11:53 am 11:53 Mostly Cloudy 81 27.2 65 18.3 58 58 SE 12 19 30.04 1017 10 16 0.00 0.00
12:53 pm 12:53 Mostly Cloudy 81 27.2 65 18.3 58 58 SSE 14 22 30.04 1017 10 16 0.00 0.00
1:53 pm 13:53 Mostly Cloudy 84 28.9 65 18.3 53 53 SE 10 17 30.02 1017 10 16 0.00 0.00
2:53 pm 14:53 Partly Cloudy 85 29.4 67 19.4 55 55 SSE 14 22 30.01 1016 10 16 0.00 0.00
3:53 pm 15:53 Mostly Cloudy 86 30 67 19.4 53 53 SSE 12 19 30.01 1016 10 16 0.00 0.00
4:53 pm 16:53 Partly Cloudy 86 30 68 20 55 55 SE 13 20 30.00 1016 10 16 0.00 0.00
5:53 pm 17:53 Mostly Sunny 85 29.4 68 20 57 57 SE 10 17 29.99 1016 10 16 0.00 0.00
6:53 pm 18:53 Mostly Sunny 85 29.4 68 20 57 57 SE 12 19 29.98 1015 10 16 0.00 0.00
7:53 pm 19:53 Partly Cloudy 83 28.3 68 20 61 61 SE 10 17 29.98 1015 10 16 0.00 0.00
8:53 pm 20:53 Mostly Cloudy 82 27.8 66 18.9 58 58 SE 9 15 29.99 1016 10 16 0.00 0.00
9:53 pm 21:53 Cloudy 80 26.7 66 18.9 62 62 SSE 9 15 29.99 1016 10 16 0.00 0.00
10:53 pm 22:53 Mostly Cloudy 79 26.1 66 18.9 65 65 SSE 7 11 30.01 1016 10 16 0.00 0.00
11:53 pm 23:53 Mostly Cloudy 79 26.1 68 20 69 69 SSE 7 11 30.01 1016 10 16 0.00 0.00

Powered by AerisWeather